QPF
0.00 0.00 0.00 0.00 0.00 0.00 0.00 0.00 0.00 0.00 0.00 0.00 0.00 0.00 0.00 0.00 0.00 0.00 0.00 0.00 0.00 0.00 0.00 0.01 0.01 0.01 0.02 0.02 0.02 0.01 0.01 0.01 0.01 0.01 0.01 0.01 0.01 0.00 0.00 0.00 0.00 0.00 0.00 0.00 0.00 0.00 0.01 0.01 0.01
0.00 0.00 0.00 0.00 0.00 0.00 0.00 0.00 0.00 0.00 0.00 0.00 0.00 0.00 0.00 0.00 0.00 0.00 0.00 0.00 0.00 0.00 0.00 0.00 0.00 0.01 0.01 0.02 0.01 0.01 0.01 0.01 0.01 0.01 0.01 0.01 0.00 0.00 0.00 0.00 0.00 0.00 0.00 0.00 0.00 0.00 0.00 0.00 0.00
0.00 0.00 0.00 0.00 0.00 0.00 0.00 0.00 0.00 0.00 0.00 0.00 0.00 0.00 0.00 0.00 0.00 0.00 0.00 0.00 0.00 0.00 0.00 0.00 0.00 0.01 0.01 0.01 0.01 0.01 0.01 0.01 0.01 0.01 0.01 0.01 0.00 0.00 0.00 0.00 0.00 0.00 0.00 0.00 0.00 0.00 0.00 0.00 0.00
0.00 0.00 0.00 0.00 0.00 0.00 0.00 0.00 0.00 0.00 0.00 0.00 0.00 0.00 0.00 0.00 0.00 0.00 0.00 0.00 0.00 0.00 0.00 0.00 0.00 0.01 0.01 0.01 0.01 0.01 0.01 0.01 0.00 0.01 0.01 0.01 0.00 0.00 0.00 0.00 0.00 0.00 0.00 0.00 0.00 0.00 0.00 0.00 0.00
0.00 0.00 0.00 0.00 0.00 0.00 0.00 0.00 0.00 0.00 0.00 0.00 0.00 0.00 0.00 0.00 0.00 0.00 0.00 0.00 0.00 0.00 0.00 0.00 0.01 0.01 0.01 0.01 0.01 0.01 0.01 0.01 0.01 0.01 0.01 0.01 0.00 0.00 0.00 0.00 0.00 0.00 0.00 0.00 0.00 0.00 0.00 0.00 0.00
0.00 0.00 0.00 0.00 0.00 0.00 0.00 0.00 0.00 0.00 0.00 0.00 0.00 0.00 0.00 0.00 0.00 0.00 0.00 0.00 0.00 0.00 0.00 0.00 0.01 0.01 0.01 0.01 0.01 0.01 0.01 0.01 0.01 0.01 0.01 0.01 0.00 0.00 0.00 0.00 0.00 0.00 0.00 0.00 0.00 0.00 0.00 0.00 0.00
0.00 0.00 0.00 0.00 0.00 0.00 0.00 0.00 0.00 0.00 0.00 0.00 0.00 0.00 0.00 0.00 0.00 0.00 0.00 0.00 0.00 0.00 0.00 0.00 0.01 0.01 0.01 0.01 0.01 0.01 0.01 0.01 0.01 0.01 0.01 0.01 0.00 0.00 0.00 0.00 0.00 0.00 0.00 0.00 0.00 0.00 0.00 0.00 0.00
0.00 0.00 0.00 0.00 0.00 0.00 0.00 0.00 0.00 0.00 0.00 0.00 0.00 0.00 0.00 0.00 0.00 0.00 0.00 0.00 0.00 0.00 0.00 0.00 0.01 0.01 0.01 0.01 0.01 0.01 0.01 0.01 0.01 0.01 0.01 0.01 0.00 0.00 0.00 0.00 0.00 0.00 0.00 0.00 0.00 0.00 0.00 0.00 0.00
0.00 0.00 0.00 0.00 0.00 0.00 0.00 0.00 0.00 0.00 0.00 0.00 0.00 0.00 0.00 0.00 0.00 0.00 0.00 0.00 0.00 0.00 0.00 0.00 0.01 0.01 0.01 0.01 0.01 0.01 0.01 0.02 0.02 0.01 0.01 0.01 0.00 0.00 0.00 0.00 0.00 0.00 0.00 0.00 0.00 0.00 0.00 0.00 0.00
0.00 0.00 0.00 0.00 0.00 0.00 0.00 0.00 0.00 0.00 0.00 0.00 0.00 0.00 0.00 0.00 0.00 0.00 0.00 0.00 0.00 0.00 0.00 0.00 0.01 0.01 0.01 0.01 0.01 0.02 0.01 0.01 0.01 0.01 0.01 0.01 0.00 0.00 0.00 0.00 0.00 0.00 0.00 0.00 0.00 0.00 0.00 0.00 0.00
0.00 0.00 0.00 0.00 0.00 0.00 0.00 0.00 0.00 0.00 0.00 0.00 0.00 0.00 0.00 0.00 0.00 0.00 0.00 0.00 0.00 0.00 0.00 0.00 0.01 0.01 0.01 0.01 0.01 0.01 0.01 0.01 0.01 0.01 0.01 0.01 0.00 0.00 0.00 0.00 0.00 0.00 0.00 0.00 0.00 0.00 0.00 0.00 0.00
0.00 0.00 0.00 0.00 0.00 0.00 0.00 0.00 0.00 0.00 0.00 0.00 0.00 0.00 0.00 0.00 0.00 0.00 0.00 0.00 0.00 0.00 0.00 0.00 0.01 0.01 0.01 0.01 0.01 0.01 0.01 0.01 0.01 0.01 0.01 0.01 0.00 0.00 0.00 0.00 0.00 0.00 0.00 0.00 0.00 0.00 0.00 0.00 0.00
0.00 0.00 0.00 0.00 0.00 0.00 0.00 0.00 0.00 0.00 0.00 0.00 0.00 0.00 0.00 0.00 0.00 0.00 0.00 0.00 0.00 0.00 0.00 0.00 0.01 0.01 0.01 0.01 0.01 0.01 0.01 0.01 0.01 0.01 0.01 0.01 0.01 0.01 0.00 0.00 0.00 0.00 0.00 0.00 0.00 0.00 0.00 0.00 0.00
0.00 0.00 0.00 0.00 0.00 0.00 0.00 0.00 0.00 0.00 0.00 0.00 0.00 0.00 0.00 0.00 0.00 0.00 0.00 0.00 0.00 0.00 0.00 0.00 0.00 0.01 0.01 0.01 0.01 0.01 0.01 0.01 0.01 0.01 0.01 0.01 0.01 0.01 0.00 0.00 0.00 0.00 0.00 0.00 0.00 0.00 0.00 0.00 0.00
0.00 0.00 0.00 0.00 0.00 0.00 0.00 0.00 0.00 0.00 0.00 0.00 0.00 0.00 0.00 0.00 0.00 0.00 0.00 0.00 0.00 0.00 0.00 0.00 0.00 0.01 0.01 0.01 0.01 0.01 0.01 0.01 0.01 0.01 0.01 0.01 0.01 0.00 0.00 0.00 0.00 0.00 0.00 0.00 0.00 0.00 0.00 0.00 0.00
0.00 0.00 0.00 0.00 0.00 0.00 0.00 0.00 0.00 0.00 0.00 0.00 0.00 0.00 0.00 0.00 0.00 0.00 0.00 0.00 0.00 0.00 0.00 0.00 0.00 0.00 0.01 0.01 0.01 0.01 0.01 0.01 0.01 0.01 0.01 0.01 0.01 0.00 0.00 0.00 0.00 0.00 0.00 0.00 0.00 0.00 0.00 0.00 0.00
0.00 0.00 0.00 0.00 0.00 0.00 0.00 0.00 0.00 0.00 0.00 0.00 0.00 0.00 0.00 0.00 0.00 0.00 0.00 0.00 0.00 0.00 0.00 0.00 0.00 0.00 0.01 0.01 0.01 0.02 0.02 0.02 0.02 0.01 0.01 0.01 0.01 0.01 0.00 0.01 0.01 0.01 0.01 0.00 0.00 0.00 0.00 0.00 0.00
0.00 0.00 0.00 0.00 0.00 0.00 0.00 0.00 0.00 0.00 0.00 0.00 0.00 0.00 0.00 0.00 0.00 0.00 0.00 0.00 0.00 0.00 0.00 0.00 0.00 0.00 0.01 0.01 0.02 0.02 0.02 0.02 0.01 0.02 0.02 0.02 0.01 0.01 0.01 0.01 0.01 0.01 0.01 0.00 0.00 0.01 0.00 0.00 0.00
0.00 0.00 0.00 0.00 0.00 0.00 0.00 0.00 0.00 0.00 0.00 0.00 0.00 0.00 0.00 0.00 0.00 0.00 0.00 0.00 0.00 0.00 0.00 0.00 0.00 0.00 0.01 0.01 0.02 0.02 0.02 0.01 0.01 0.02 0.02 0.02 0.01 0.01 0.01 0.00 0.00 0.00 0.01 0.01 0.01 0.00 0.00 0.00 0.00
0.00 0.00 0.00 0.00 0.00 0.00 0.00 0.00 0.00 0.00 0.00 0.00 0.00 0.00 0.00 0.00 0.00 0.00 0.00 0.00 0.00 0.00 0.00 0.00 0.00 0.00 0.00 0.01 0.01 0.01 0.01 0.01 0.01 0.01 0.01 0.01 0.01 0.00 0.00 0.00 0.00 0.00 0.00 0.00 0.00 0.00 0.00 0.00 0.00
0.00 0.00 0.00 0.00 0.00 0.00 0.00 0.00 0.00 0.00 0.00 0.00 0.00 0.00 0.00 0.00 0.00 0.00 0.00 0.00 0.00 0.00 0.00 0.00 0.00 0.00 0.00 0.00 0.01 0.00 0.01 0.00 0.00 0.00 0.00 0.00 0.00 0.00 0.00 0.00 0.00 0.00 0.00 0.00 0.00 0.00 0.00 0.00 0.00
0.00 0.00 0.00 0.00 0.00 0.00 0.00 0.00 0.00 0.00 0.00 0.00 0.00 0.00 0.00 0.00 0.00 0.00 0.00 0.00 0.00 0.00 0.00 0.00 0.00 0.00 0.00 0.00 0.01 0.01 0.00 0.00 0.00 0.00 0.00 0.00 0.00 0.00 0.00 0.00 0.00 0.00 0.00 0.00 0.00 0.00 0.00 0.00 0.00
0.00 0.00 0.00 0.00 0.00 0.00 0.00 0.00 0.00 0.00 0.00 0.00 0.00 0.00 0.00 0.00 0.00 0.00 0.00 0.00 0.00 0.00 0.00 0.00 0.00 0.00 0.00 0.00 0.00 0.00 0.00 0.00 0.00 0.00 0.00 0.00 0.00 0.00 0.00 0.00 0.00 0.00 0.00 0.00 0.00 0.00 0.00 0.00 0.00
0.00 0.00 0.00 0.00 0.00 0.00 0.00 0.00 0.00 0.00 0.00 0.00 0.00 0.00 0.00 0.00 0.00 0.00 0.00 0.00 0.00 0.00 0.00 0.00 0.00 0.00 0.00 0.00 0.00 0.00 0.00 0.00 0.00 0.00 0.00 0.00 0.00 0.00 0.00 0.00 0.00 0.00 0.00 0.00 0.00 0.00 0.00 0.00 0.00
0.00 0.00 0.00 0.00 0.00 0.00 0.00 0.00 0.00 0.00 0.00 0.00 0.00 0.00 0.00 0.00 0.00 0.00 0.00 0.00 0.00 0.00 0.00 0.00 0.00 0.00 0.00 0.00 0.00 0.00 0.00 0.00 0.00 0.00 0.00 0.00 0.00 0.00 0.00 0.00 0.00 0.00 0.00 0.00 0.00 0.00 0.00 0.00 0.00
0.00 0.00 0.00 0.00 0.00 0.00 0.00 0.00 0.00 0.00 0.00 0.00 0.00 0.00 0.00 0.00 0.00 0.00 0.00 0.00 0.00 0.00 0.00 0.00 0.00 0.00 0.00 0.00 0.00 0.00 0.00 0.00 0.00 0.00 0.00 0.00 0.00 0.00 0.00 0.00 0.00 0.00 0.00 0.00 0.00 0.00 0.00 0.00 0.00
0.00 0.00 0.00 0.00 0.00 0.00 0.00 0.00 0.00 0.00 0.00 0.00 0.00 0.00 0.00 0.00 0.00 0.00 0.00 0.00 0.00 0.00 0.00 0.00 0.00 0.00 0.00 0.00 0.00 0.00 0.00 0.00 0.00 0.00 0.00 0.00 0.00 0.00 0.00 0.00 0.00 0.00 0.00 0.00 0.00 0.00 0.00 0.00 0.00
0.00 0.00 0.00 0.00 0.00 0.00 0.00 0.00 0.00 0.00 0.00 0.00 0.00 0.00 0.00 0.00 0.00 0.00 0.00 0.00 0.00 0.00 0.00 0.00 0.00 0.00 0.00 0.00 0.00 0.00 0.00 0.00 0.00 0.00 0.00 0.00 0.00 0.00 0.00 0.00 0.00 0.00 0.00 0.00 0.00 0.00 0.00 0.00 0.00
0.00 0.00 0.00 0.00 0.00 0.00 0.00 0.00 0.00 0.00 0.00 0.00 0.00 0.00 0.00 0.00 0.00 0.00 0.00 0.00 0.00 0.00 0.00 0.00 0.00 0.00 0.00 0.00 0.00 0.00 0.00 0.00 0.00 0.00 0.00 0.00 0.00 0.00 0.00 0.00 0.00 0.00 0.00 0.00 0.00 0.00 0.00 0.00 0.00
0.00 0.00 0.00 0.00 0.00 0.00 0.00 0.00 0.00 0.00 0.00 0.00 0.00 0.00 0.00 0.00 0.00 0.00 0.00 0.00 0.00 0.00 0.00 0.00 0.00 0.00 0.00 0.00 0.00 0.00 0.00 0.00 0.00 0.00 0.00 0.00 0.00 0.00 0.00 0.00 0.00 0.00 0.00 0.00 0.00 0.00 0.00 0.00 0.00
MSLP
1014.97 1015.25 1015.66 1016.13 1016.59 1017.00 1017.31 1017.49 1017.56 1017.53 1017.44 1017.32 1017.21 1017.13 1017.07 1017.03 1017.00 1016.97 1016.97 1016.99 1017.08 1017.24 1017.49 1017.84 1018.27 1018.73 1019.19 1019.60 1019.95 1020.22 1020.41 1020.54 1020.64 1020.74 1020.85 1020.97 1021.11 1021.24 1021.34 1021.42 1021.45 1021.46 1021.44 1021.43 1021.41 1021.41 1021.42 1021.41 1021.39
1015.15 1015.53 1016.01 1016.51 1016.95 1017.29 1017.48 1017.52 1017.43 1017.26 1017.06 1016.87 1016.73 1016.65 1016.63 1016.65 1016.68 1016.72 1016.76 1016.82 1016.94 1017.13 1017.41 1017.80 1018.26 1018.76 1019.26 1019.71 1020.09 1020.38 1020.59 1020.74 1020.87 1021.00 1021.14 1021.30 1021.47 1021.63 1021.76 1021.85 1021.89 1021.89 1021.88 1021.87 1021.87 1021.88 1021.90 1021.92 1021.90
1015.42 1015.88 1016.40 1016.89 1017.28 1017.52 1017.58 1017.48 1017.25 1016.95 1016.65 1016.42 1016.27 1016.22 1016.25 1016.34 1016.44 1016.54 1016.64 1016.74 1016.89 1017.10 1017.41 1017.81 1018.30 1018.82 1019.35 1019.82 1020.23 1020.54 1020.78 1020.96 1021.12 1021.28 1021.46 1021.65 1021.85 1022.02 1022.15 1022.23 1022.26 1022.25 1022.23 1022.21 1022.21 1022.24 1022.28 1022.32 1022.32
1015.76 1016.26 1016.78 1017.24 1017.56 1017.70 1017.64 1017.40 1017.05 1016.66 1016.30 1016.04 1015.90 1015.89 1015.99 1016.14 1016.31 1016.48 1016.62 1016.76 1016.93 1017.17 1017.49 1017.90 1018.39 1018.93 1019.46 1019.95 1020.36 1020.69 1020.95 1021.16 1021.36 1021.55 1021.76 1021.99 1022.20 1022.38 1022.50 1022.56 1022.57 1022.54 1022.49 1022.47 1022.47 1022.51 1022.57 1022.62 1022.65
1016.10 1016.62 1017.12 1017.53 1017.77 1017.82 1017.66 1017.33 1016.90 1016.44 1016.05 1015.79 1015.67 1015.71 1015.86 1016.08 1016.31 1016.53 1016.72 1016.89 1017.08 1017.33 1017.65 1018.05 1018.54 1019.06 1019.59 1020.07 1020.48 1020.82 1021.09 1021.33 1021.55 1021.78 1022.02 1022.27 1022.49 1022.68 1022.80 1022.85 1022.83 1022.77 1022.71 1022.67 1022.67 1022.71 1022.78 1022.85 1022.89
1016.40 1016.90 1017.37 1017.72 1017.90 1017.88 1017.65 1017.27 1016.80 1016.33 1015.94 1015.69 1015.61 1015.68 1015.87 1016.13 1016.41 1016.67 1016.89 1017.09 1017.30 1017.54 1017.86 1018.25 1018.72 1019.22 1019.72 1020.18 1020.57 1020.90 1021.18 1021.43 1021.67 1021.93 1022.20 1022.47 1022.72 1022.92 1023.04 1023.08 1023.05 1022.98 1022.90 1022.85 1022.84 1022.88 1022.95 1023.02 1023.07
1016.62 1017.09 1017.51 1017.81 1017.94 1017.88 1017.63 1017.25 1016.78 1016.33 1015.96 1015.73 1015.67 1015.77 1015.98 1016.27 1016.57 1016.85 1017.09 1017.31 1017.53 1017.77 1018.08 1018.46 1018.89 1019.36 1019.82 1020.25 1020.61 1020.93 1021.20 1021.45 1021.71 1021.99 1022.29 1022.59 1022.87 1023.08 1023.22 1023.27 1023.25 1023.18 1023.09 1023.03 1023.01 1023.03 1023.08 1023.13 1023.17
1016.76 1017.18 1017.54 1017.79 1017.90 1017.83 1017.60 1017.24 1016.82 1016.40 1016.06 1015.86 1015.81 1015.92 1016.13 1016.42 1016.72 1017.01 1017.26 1017.48 1017.71 1017.96 1018.25 1018.61 1019.02 1019.44 1019.87 1020.25 1020.59 1020.89 1021.15 1021.40 1021.67 1021.97 1022.30 1022.63 1022.93 1023.17 1023.34 1023.41 1023.41 1023.35 1023.28 1023.21 1023.17 1023.16 1023.18 1023.19 1023.19
1016.84 1017.19 1017.50 1017.71 1017.81 1017.76 1017.56 1017.25 1016.88 1016.51 1016.20 1016.01 1015.96 1016.05 1016.24 1016.51 1016.79 1017.07 1017.32 1017.56 1017.79 1018.04 1018.33 1018.67 1019.05 1019.44 1019.83 1020.19 1020.50 1020.78 1021.04 1021.30 1021.58 1021.89 1022.24 1022.59 1022.92 1023.20 1023.39 1023.50 1023.53 1023.49 1023.42 1023.35 1023.29 1023.25 1023.22 1023.19 1023.13
1016.88 1017.17 1017.42 1017.61 1017.69 1017.66 1017.51 1017.25 1016.93 1016.59 1016.31 1016.11 1016.04 1016.09 1016.24 1016.47 1016.73 1017.00 1017.25 1017.49 1017.72 1017.98 1018.27 1018.60 1018.96 1019.33 1019.70 1020.05 1020.35 1020.63 1020.89 1021.15 1021.45 1021.77 1022.13 1022.49 1022.84 1023.14 1023.37 1023.51 1023.56 1023.55 1023.50 1023.43 1023.36 1023.28 1023.20 1023.11 1022.99
1016.93 1017.16 1017.36 1017.51 1017.59 1017.57 1017.45 1017.23 1016.94 1016.62 1016.32 1016.10 1015.98 1015.98 1016.09 1016.28 1016.51 1016.76 1017.01 1017.26 1017.51 1017.77 1018.07 1018.39 1018.75 1019.12 1019.49 1019.83 1020.15 1020.44 1020.72 1021.01 1021.31 1021.64 1022.00 1022.36 1022.71 1023.02 1023.26 1023.42 1023.50 1023.52 1023.48 1023.42 1023.33 1023.23 1023.11 1022.96 1022.79
1017.01 1017.18 1017.34 1017.46 1017.52 1017.51 1017.39 1017.17 1016.88 1016.54 1016.21 1015.94 1015.77 1015.71 1015.76 1015.91 1016.13 1016.38 1016.64 1016.90 1017.17 1017.45 1017.75 1018.08 1018.44 1018.82 1019.20 1019.57 1019.92 1020.25 1020.56 1020.86 1021.18 1021.51 1021.85 1022.20 1022.53 1022.82 1023.06 1023.23 1023.33 1023.36 1023.35 1023.29 1023.20 1023.09 1022.94 1022.75 1022.54
1017.11 1017.25 1017.37 1017.46 1017.50 1017.46 1017.33 1017.09 1016.75 1016.36 1015.97 1015.63 1015.39 1015.27 1015.28 1015.41 1015.62 1015.88 1016.16 1016.45 1016.74 1017.03 1017.35 1017.69 1018.06 1018.46 1018.87 1019.28 1019.68 1020.05 1020.40 1020.74 1021.07 1021.39 1021.71 1022.02 1022.32 1022.58 1022.79 1022.95 1023.05 1023.10 1023.10 1023.06 1022.99 1022.87 1022.71 1022.51 1022.27
1017.23 1017.35 1017.45 1017.52 1017.53 1017.45 1017.26 1016.96 1016.55 1016.08 1015.60 1015.18 1014.87 1014.70 1014.68 1014.80 1015.03 1015.32 1015.63 1015.96 1016.27 1016.59 1016.92 1017.27 1017.66 1018.09 1018.53 1018.99 1019.44 1019.87 1020.27 1020.63 1020.97 1021.28 1021.57 1021.84 1022.08 1022.29 1022.47 1022.61 1022.71 1022.77 1022.78 1022.77 1022.70 1022.60 1022.45 1022.26 1022.02
1017.34 1017.46 1017.55 1017.60 1017.58 1017.46 1017.20 1016.81 1016.31 1015.73 1015.15 1014.64 1014.27 1014.06 1014.03 1014.16 1014.42 1014.76 1015.12 1015.49 1015.84 1016.17 1016.52 1016.88 1017.28 1017.73 1018.21 1018.71 1019.21 1019.69 1020.14 1020.53 1020.88 1021.17 1021.43 1021.65 1021.84 1022.01 1022.15 1022.26 1022.35 1022.41 1022.44 1022.44 1022.41 1022.33 1022.21 1022.03 1021.81
1017.41 1017.55 1017.66 1017.70 1017.65 1017.48 1017.14 1016.65 1016.04 1015.34 1014.66 1014.07 1013.64 1013.40 1013.38 1013.54 1013.85 1014.24 1014.66 1015.07 1015.46 1015.82 1016.17 1016.54 1016.94 1017.40 1017.91 1018.45 1018.99 1019.52 1020.00 1020.42 1020.77 1021.06 1021.29 1021.47 1021.62 1021.74 1021.85 1021.94 1022.02 1022.08 1022.13 1022.15 1022.14 1022.09 1021.99 1021.85 1021.65
1017.42 1017.61 1017.74 1017.79 1017.73 1017.50 1017.09 1016.49 1015.76 1014.96 1014.17 1013.50 1013.02 1012.77 1012.77 1012.97 1013.34 1013.79 1014.27 1014.73 1015.15 1015.53 1015.89 1016.25 1016.66 1017.12 1017.64 1018.20 1018.77 1019.33 1019.84 1020.28 1020.65 1020.93 1021.14 1021.31 1021.43 1021.53 1021.62 1021.70 1021.77 1021.84 1021.90 1021.93 1021.94 1021.92 1021.84 1021.72 1021.55
1017.38 1017.62 1017.80 1017.87 1017.79 1017.52 1017.03 1016.34 1015.50 1014.59 1013.72 1012.98 1012.46 1012.21 1012.22 1012.48 1012.90 1013.42 1013.96 1014.46 1014.91 1015.30 1015.66 1016.02 1016.42 1016.87 1017.39 1017.95 1018.54 1019.12 1019.65 1020.11 1020.48 1020.77 1021.00 1021.16 1021.28 1021.38 1021.48 1021.56 1021.64 1021.72 1021.78 1021.82 1021.84 1021.82 1021.76 1021.66 1021.51
1017.30 1017.60 1017.83 1017.93 1017.85 1017.53 1016.98 1016.20 1015.26 1014.26 1013.30 1012.51 1011.97 1011.72 1011.76 1012.06 1012.54 1013.11 1013.70 1014.25 1014.72 1015.12 1015.48 1015.83 1016.21 1016.65 1017.15 1017.71 1018.29 1018.87 1019.41 1019.89 1020.28 1020.60 1020.84 1021.03 1021.18 1021.31 1021.42 1021.53 1021.62 1021.70 1021.77 1021.81 1021.82 1021.80 1021.75 1021.65 1021.51
1017.22 1017.57 1017.85 1017.97 1017.89 1017.54 1016.92 1016.06 1015.04 1013.96 1012.95 1012.11 1011.55 1011.31 1011.37 1011.71 1012.23 1012.85 1013.48 1014.05 1014.55 1014.96 1015.31 1015.65 1016.02 1016.43 1016.92 1017.45 1018.03 1018.60 1019.15 1019.63 1020.05 1020.39 1020.68 1020.91 1021.11 1021.29 1021.44 1021.58 1021.70 1021.79 1021.85 1021.88 1021.88 1021.85 1021.79 1021.69 1021.56
1017.14 1017.55 1017.86 1018.01 1017.91 1017.52 1016.85 1015.93 1014.83 1013.69 1012.63 1011.78 1011.21 1010.97 1011.06 1011.42 1011.98 1012.63 1013.29 1013.88 1014.39 1014.81 1015.16 1015.49 1015.83 1016.23 1016.69 1017.20 1017.75 1018.31 1018.85 1019.35 1019.79 1020.17 1020.51 1020.80 1021.06 1021.29 1021.51 1021.69 1021.83 1021.93 1021.99 1022.01 1021.99 1021.94 1021.87 1021.77 1021.65
1017.08 1017.53 1017.87 1018.01 1017.89 1017.47 1016.75 1015.77 1014.62 1013.44 1012.36 1011.49 1010.93 1010.70 1010.81 1011.19 1011.77 1012.44 1013.11 1013.72 1014.24 1014.66 1015.01 1015.33 1015.67 1016.04 1016.47 1016.96 1017.49 1018.03 1018.56 1019.07 1019.53 1019.95 1020.33 1020.68 1021.01 1021.31 1021.57 1021.80 1021.97 1022.09 1022.15 1022.15 1022.12 1022.05 1021.97 1021.87 1021.76
1017.01 1017.49 1017.84 1017.98 1017.83 1017.37 1016.59 1015.57 1014.40 1013.20 1012.11 1011.26 1010.71 1010.50 1010.63 1011.02 1011.61 1012.29 1012.97 1013.58 1014.10 1014.53 1014.88 1015.20 1015.52 1015.88 1016.29 1016.75 1017.25 1017.77 1018.29 1018.80 1019.27 1019.73 1020.15 1020.56 1020.94 1021.30 1021.62 1021.88 1022.08 1022.21 1022.27 1022.27 1022.22 1022.15 1022.07 1021.98 1021.88
1016.90 1017.40 1017.75 1017.86 1017.68 1017.18 1016.37 1015.32 1014.14 1012.95 1011.89 1011.06 1010.54 1010.36 1010.50 1010.91 1011.50 1012.17 1012.84 1013.46 1013.98 1014.41 1014.76 1015.08 1015.40 1015.75 1016.14 1016.58 1017.06 1017.56 1018.06 1018.56 1019.05 1019.52 1019.98 1020.42 1020.85 1021.25 1021.61 1021.90 1022.12 1022.27 1022.33 1022.34 1022.29 1022.22 1022.15 1022.07 1022.00
1016.69 1017.21 1017.55 1017.64 1017.42 1016.88 1016.06 1015.01 1013.84 1012.69 1011.67 1010.89 1010.41 1010.26 1010.43 1010.84 1011.42 1012.08 1012.74 1013.34 1013.86 1014.29 1014.65 1014.98 1015.30 1015.64 1016.03 1016.45 1016.91 1017.39 1017.88 1018.37 1018.85 1019.33 1019.81 1020.28 1020.74 1021.16 1021.54 1021.86 1022.10 1022.25 1022.33 1022.34 1022.31 1022.25 1022.19 1022.13 1022.08
1016.36 1016.88 1017.20 1017.26 1017.02 1016.46 1015.64 1014.61 1013.49 1012.39 1011.44 1010.72 1010.30 1010.19 1010.37 1010.78 1011.35 1011.99 1012.63 1013.21 1013.72 1014.15 1014.52 1014.86 1015.20 1015.55 1015.93 1016.35 1016.80 1017.27 1017.74 1018.22 1018.70 1019.18 1019.66 1020.14 1020.60 1021.04 1021.43 1021.76 1022.01 1022.18 1022.26 1022.29 1022.26 1022.22 1022.17 1022.13 1022.11
1015.86 1016.38 1016.69 1016.73 1016.47 1015.91 1015.10 1014.12 1013.07 1012.05 1011.18 1010.54 1010.18 1010.11 1010.30 1010.70 1011.25 1011.85 1012.46 1013.02 1013.53 1013.96 1014.34 1014.70 1015.06 1015.43 1015.83 1016.26 1016.71 1017.17 1017.64 1018.11 1018.58 1019.06 1019.53 1020.00 1020.46 1020.90 1021.29 1021.62 1021.87 1022.04 1022.14 1022.17 1022.17 1022.13 1022.09 1022.06 1022.04
1015.21 1015.72 1016.01 1016.03 1015.77 1015.23 1014.46 1013.55 1012.58 1011.66 1010.89 1010.33 1010.03 1009.99 1010.18 1010.56 1011.07 1011.63 1012.20 1012.74 1013.22 1013.66 1014.07 1014.45 1014.85 1015.25 1015.69 1016.14 1016.60 1017.08 1017.55 1018.02 1018.49 1018.96 1019.42 1019.88 1020.33 1020.75 1021.13 1021.45 1021.70 1021.87 1021.97 1022.01 1022.01 1021.98 1021.93 1021.89 1021.85
1014.43 1014.92 1015.19 1015.20 1014.94 1014.43 1013.72 1012.88 1012.01 1011.20 1010.53 1010.05 1009.81 1009.79 1009.97 1010.32 1010.78 1011.29 1011.81 1012.31 1012.78 1013.23 1013.65 1014.08 1014.52 1014.97 1015.45 1015.95 1016.45 1016.95 1017.44 1017.93 1018.40 1018.86 1019.31 1019.76 1020.19 1020.59 1020.95 1021.26 1021.50 1021.67 1021.77 1021.80 1021.79 1021.75 1021.68 1021.61 1021.55
1013.58 1014.04 1014.28 1014.27 1014.01 1013.54 1012.89 1012.15 1011.38 1010.68 1010.11 1009.71 1009.51 1009.50 1009.67 1009.97 1010.37 1010.81 1011.28 1011.74 1012.20 1012.65 1013.10 1013.57 1014.06 1014.58 1015.12 1015.67 1016.22 1016.76 1017.29 1017.79 1018.27 1018.74 1019.19 1019.62 1020.03 1020.41 1020.76 1021.04 1021.27 1021.42 1021.51 1021.53 1021.50 1021.43 1021.34 1021.23 1021.11
Thickness
5748 5751 5753 5751 5740 5730 5727 5732 5738 5737 5740 5748 5748 5745 5744 5742 5737 5731 5739 5743 5740 5735 5730 5723 5719 5716 5713 5710 5708 5706 5704 5702 5700 5699 5697 5696 5695 5694 5692 5691 5690 5690 5689 5688 5688 5688 5687 5687 5686
5750 5752 5752 5746 5732 5722 5725 5736 5736 5740 5744 5746 5746 5745 5744 5744 5748 5744 5740 5739 5737 5733 5728 5723 5717 5714 5711 5708 5705 5703 5701 5699 5697 5695 5693 5691 5690 5689 5687 5686 5685 5684 5683 5682 5682 5681 5681 5680 5680
5751 5752 5747 5739 5729 5728 5729 5738 5740 5742 5745 5746 5744 5746 5746 5744 5746 5746 5744 5738 5735 5731 5727 5722 5716 5712 5708 5705 5702 5700 5697 5695 5693 5691 5689 5687 5685 5683 5682 5680 5679 5678 5677 5676 5676 5675 5675 5674 5673
5751 5749 5745 5736 5727 5733 5736 5740 5741 5741 5742 5745 5745 5743 5745 5745 5746 5745 5741 5737 5734 5729 5725 5719 5713 5709 5706 5702 5699 5696 5694 5691 5689 5686 5684 5682 5680 5678 5676 5675 5674 5672 5671 5671 5670 5669 5668 5668 5667
5749 5745 5733 5727 5728 5735 5740 5741 5741 5741 5741 5743 5743 5741 5742 5743 5742 5741 5737 5735 5732 5728 5723 5717 5711 5707 5703 5700 5696 5693 5690 5687 5685 5682 5680 5678 5675 5673 5671 5670 5668 5667 5666 5665 5664 5663 5662 5661 5661
5741 5740 5729 5724 5727 5733 5739 5740 5741 5741 5742 5742 5741 5740 5742 5741 5740 5737 5735 5732 5729 5725 5720 5714 5708 5705 5701 5697 5694 5690 5687 5684 5681 5678 5676 5673 5671 5668 5666 5665 5663 5662 5660 5659 5658 5657 5656 5655 5655
5735 5731 5726 5726 5725 5729 5735 5740 5741 5741 5739 5741 5744 5738 5742 5740 5736 5734 5732 5729 5725 5721 5717 5712 5707 5702 5698 5694 5690 5687 5684 5680 5677 5674 5671 5669 5666 5664 5661 5659 5658 5656 5654 5653 5652 5651 5650 5649 5648
5736 5730 5721 5723 5723 5725 5735 5737 5739 5739 5740 5743 5742 5737 5739 5737 5731 5730 5727 5724 5721 5717 5714 5710 5706 5701 5697 5692 5687 5684 5680 5677 5673 5670 5667 5664 5661 5659 5656 5654 5652 5651 5649 5647 5646 5645 5644 5643 5642
5731 5722 5717 5720 5721 5726 5732 5733 5735 5738 5738 5738 5739 5739 5734 5730 5726 5723 5719 5717 5715 5713 5712 5708 5704 5700 5695 5691 5685 5680 5676 5673 5669 5666 5662 5659 5658 5655 5652 5650 5647 5646 5644 5642 5641 5640 5638 5637 5636
5723 5714 5718 5724 5727 5727 5728 5729 5731 5731 5730 5733 5735 5733 5727 5724 5722 5721 5719 5715 5713 5711 5710 5706 5702 5697 5692 5688 5682 5678 5674 5670 5667 5664 5659 5656 5654 5652 5649 5645 5643 5641 5639 5637 5636 5634 5633 5633 5633
5717 5715 5719 5721 5725 5725 5724 5726 5729 5727 5725 5732 5734 5736 5728 5722 5721 5721 5721 5719 5715 5712 5707 5704 5700 5695 5690 5685 5680 5676 5672 5667 5664 5660 5657 5653 5650 5647 5644 5642 5640 5638 5635 5634 5632 5631 5630 5629 5628
5711 5713 5715 5719 5719 5718 5720 5723 5725 5724 5730 5738 5738 5736 5729 5724 5722 5722 5721 5718 5713 5709 5705 5702 5697 5692 5687 5683 5678 5673 5669 5664 5660 5656 5653 5649 5646 5644 5641 5639 5637 5634 5632 5630 5628 5627 5625 5624 5623
5704 5707 5710 5712 5712 5714 5715 5717 5720 5725 5733 5734 5731 5728 5728 5727 5725 5723 5721 5717 5711 5707 5703 5699 5695 5690 5685 5680 5675 5670 5666 5662 5658 5653 5649 5646 5643 5640 5637 5635 5632 5630 5627 5625 5624 5623 5621 5619 5618
5702 5703 5705 5707 5707 5708 5707 5713 5712 5723 5729 5727 5725 5726 5727 5726 5724 5721 5717 5714 5710 5706 5702 5698 5693 5688 5683 5678 5673 5668 5664 5659 5655 5650 5647 5643 5639 5636 5633 5630 5627 5625 5622 5620 5618 5617 5615 5614 5612
5695 5693 5698 5701 5701 5703 5700 5705 5712 5723 5722 5722 5724 5725 5724 5723 5721 5719 5717 5713 5710 5706 5701 5696 5691 5686 5681 5675 5671 5666 5661 5656 5652 5647 5643 5639 5635 5632 5628 5626 5623 5620 5617 5615 5612 5611 5609 5607 5606
5685 5684 5684 5694 5694 5694 5692 5699 5715 5719 5715 5718 5722 5724 5722 5721 5720 5718 5715 5712 5709 5704 5699 5695 5688 5683 5678 5673 5667 5663 5658 5653 5648 5644 5639 5635 5631 5627 5624 5621 5618 5615 5612 5609 5607 5605 5604 5603 5601
5674 5675 5678 5684 5688 5688 5688 5695 5710 5713 5711 5714 5719 5722 5721 5720 5718 5717 5713 5710 5706 5702 5697 5691 5686 5680 5675 5669 5664 5659 5654 5649 5645 5640 5636 5631 5627 5623 5619 5616 5613 5609 5606 5604 5601 5599 5598 5597 5594
5668 5670 5672 5674 5682 5679 5681 5692 5705 5711 5708 5712 5717 5719 5718 5717 5717 5715 5711 5707 5703 5699 5695 5689 5683 5677 5671 5665 5659 5653 5648 5644 5640 5635 5631 5627 5622 5618 5614 5611 5607 5604 5601 5598 5596 5593 5590 5588 5586
5667 5665 5666 5672 5675 5669 5677 5687 5700 5708 5708 5710 5714 5716 5716 5716 5716 5711 5705 5702 5698 5694 5690 5686 5679 5674 5668 5661 5654 5649 5644 5639 5634 5630 5626 5622 5617 5613 5609 5606 5602 5598 5596 5593 5590 5587 5585 5582 5579
5656 5656 5661 5667 5664 5661 5672 5683 5699 5705 5707 5710 5712 5714 5714 5712 5709 5704 5699 5696 5693 5690 5686 5681 5676 5670 5664 5658 5652 5647 5640 5634 5629 5624 5620 5616 5612 5608 5604 5600 5597 5592 5589 5586 5583 5579 5577 5574 5570
5648 5652 5656 5656 5659 5659 5658 5678 5695 5703 5704 5705 5706 5708 5711 5708 5705 5700 5695 5692 5688 5684 5680 5676 5671 5665 5659 5653 5647 5639 5632 5626 5622 5618 5614 5609 5605 5601 5597 5594 5590 5586 5582 5579 5575 5571 5568 5567 5563
5644 5652 5648 5646 5643 5652 5650 5656 5688 5697 5698 5701 5704 5705 5705 5704 5701 5697 5691 5687 5682 5678 5673 5669 5664 5659 5654 5648 5643 5638 5632 5627 5621 5615 5609 5603 5599 5595 5590 5586 5582 5579 5575 5571 5567 5563 5560 5556 5555
5645 5644 5639 5637 5637 5640 5647 5643 5677 5690 5690 5699 5702 5701 5699 5697 5694 5691 5686 5681 5676 5671 5665 5661 5657 5652 5648 5643 5639 5635 5629 5624 5616 5609 5603 5597 5592 5588 5583 5579 5575 5571 5567 5563 5559 5555 5551 5548 5545
5632 5630 5625 5626 5630 5629 5647 5641 5664 5686 5689 5693 5696 5696 5693 5690 5686 5683 5679 5673 5668 5662 5658 5654 5650 5645 5641 5637 5634 5630 5624 5617 5610 5604 5598 5592 5586 5581 5576 5572 5568 5563 5559 5554 5550 5546 5542 5538 5535
5627 5625 5618 5619 5621 5634 5638 5636 5661 5686 5687 5685 5685 5688 5687 5683 5679 5675 5671 5666 5661 5655 5651 5647 5643 5639 5635 5631 5627 5623 5618 5612 5607 5601 5594 5588 5581 5576 5570 5564 5560 5556 5550 5546 5541 5537 5534 5530 5526
5626 5628 5622 5620 5626 5633 5623 5633 5667 5681 5679 5678 5677 5678 5677 5675 5673 5669 5665 5661 5656 5650 5645 5641 5637 5633 5628 5625 5621 5616 5611 5606 5602 5595 5589 5583 5577 5571 5564 5558 5552 5547 5542 5537 5533 5529 5525 5520 5516
5621 5622 5634 5623 5617 5616 5632 5643 5661 5674 5674 5673 5673 5672 5671 5669 5665 5662 5659 5655 5651 5645 5640 5637 5632 5627 5622 5618 5613 5609 5604 5599 5594 5588 5582 5576 5570 5563 5556 5550 5544 5539 5534 5529 5524 5520 5516 5512 5508
5627 5626 5613 5610 5608 5611 5629 5636 5650 5664 5668 5669 5668 5667 5666 5662 5659 5656 5653 5649 5645 5640 5635 5630 5627 5622 5617 5612 5607 5602 5597 5592 5586 5580 5574 5568 5562 5555 5548 5542 5537 5531 5526 5520 5516 5511 5507 5503 5499
5612 5612 5618 5618 5620 5618 5621 5639 5659 5661 5661 5660 5661 5661 5659 5657 5654 5651 5647 5643 5639 5634 5628 5624 5620 5616 5611 5606 5601 5595 5590 5584 5579 5573 5567 5561 5554 5547 5541 5535 5529 5523 5518 5513 5508 5504 5499 5495 5491
5621 5621 5619 5613 5613 5616 5623 5639 5660 5656 5655 5652 5654 5653 5653 5651 5649 5646 5642 5637 5632 5628 5623 5619 5615 5610 5605 5600 5594 5589 5583 5577 5571 5566 5560 5553 5547 5540 5534 5527 5521 5516 5510 5505 5500 5496 5491 5486 5483